Location: Kaarina
(60.4167°N, 22.4167°E)
Time: 11:58:39
(UTC+03:00)

Iridium 2 - Pass Details

Date: 24 August 2019
Orbit: 505 x 517 km, 85.5° (Epoch: 16 October)

Event Time Altitude Azimuth Distance (km) Brightness Sun altitude
Exits shadow 21:54:40 - 169° (S) 2,527 6.8 -6.6°
Reaches altitude 10° 21:56:38 10° 164° (SSE) 1,725 5.9 -6.8°
Maximum altitude 22:00:15 47° 90° (E) 682 4.0 -7.2°
Drops below altitude 10° 22:03:55 10° 16° (NNE) 1,744 6.7 -7.5°
Sets 22:06:06 0° 11° (N) 2,637 7.7 -7.7°
